Showing default

IRIDIUM 128, 42811

Orbit data source: Space-Track

IRIDIUM 128, 42811 is a payload satellite owned by Iridium (US) in LEO that was launched on Sun, 25 Jun 2017 UTC via an FALCON 9 launch vehicle from the Air Force Western Test Range (AFWTR). Payload-class satellites include a variety of spacecraft equipped with specific instruments for various scientific and technological missions. These include communications satellites like Starlink; space stations such as the ISS; scientific satellites like the Hubble; Earth observation satellites from companies like Planet Labs, Umbra, and HawkEye 360; GPS; miniature CubeSats for education and research; and military/defense satellites.

Loading next visibility...
Identifier
42811, 2017-039J
Orbit
LEO
Country
Flag of USUS
Related business
Manufacturer
OATK SSG Gilbert
Mission
Operational Commercial Communications
Bus & Motor
ELITEBUS, Unknown motor
Mass
860 kg wet, 700 kg dry
Launch date (UTC)
2017-06-25 (9 years ago)
Launch vehicle
FALCON 9
Launch site
Air Force Western Test Range (AFWTR)
Object type
Payload
Rocket body
Debris
Shape & HBR
Trap Box + 2 Pan, 4.8 m
Radar Cross Section
10.154 m², Large (>1 m²)

Expand to show TLE details & history
Last TLE update: 10 hours ago

TLE from 10 hours ago
0 IRIDIUM 128
1 42811U 17039J   26130.18530933  .00000022  00000-0  87624-6 0  9997
2 42811  86.3992  41.0322 0002157  78.0860 282.0578 14.34217669464538
Epoch: 2026-05-10T04:26Z
TLE epoch observation values (Epoch: 2026-05-10T04:26:50.726Z)
Latitude
0.00004°
Longitude
106.32883°
Altitude
780.396 km
Speed
7.464 km/s
True Right ascension
02h 44m 07s
True Declination
0° 00' 00"
Sunlit
Object was in daylight at epoch
Visualization orbit readout
Latitude
Unknown
Longitude
Unknown
Altitude
Unknown
Speed
Unknown
Apparent Right ascension
Unknown
Apparent Declination
Unknown
Sunlit
N/A
Visualization observer readout
Local Sidereal Time
22:26:21
Azimuth
Unknown
Elevation
Unknown
Doppler factor
Unknown
Orbital elements
Apogee altitude
776.175 km
Perigee altitude
773.089 km
Semi-major axis
7,152.769 km
Eccentricity
0.00022
Inclination
86.3992°
RAAN
41.0322°
Arg. of periapsis
78.086°
True anomaly
282.03363°
Mean anomaly
282.0578°
Eccentric anomaly
282.04571°
Mean motion
3.58783 °/min
Orbital period
100.34 mins
BSTAR
8.7624e-7
Loading maneuver chart data...
Computing Atmospheric mass density...
Loading historical data...
Loading historical data...
Loading historical data...
Loading historical data...
Loading historical data...
Loading historical data...
Loading historical data...

Documentation

Showing up to 5 results
|